Location: Haliburton Scout Reserve
(45.0900°N, 78.3200°W)
Time: 20:06:57
(UTC-04:00)

STRAND 1 - Pass Details

Date: 03 April 2023
Orbit: 767 x 779 km, 98.4° (Epoch: 06 June)

Event Time Altitude Azimuth Distance (km) Brightness Sun altitude
Rises 20:05:53 0° 14° (NNE) 3,249 ? -4.7°
Reaches altitude 10° 20:08:13 10° 15° (NNE) 2,318 ? -5.1°
Maximum altitude 20:13:20 85° 104° (ESE) 777 ? -6.0°
Drops below altitude 10° 20:18:25 10° 193° (SSW) 2,301 ? -6.9°
Sets 20:20:42 0° 194° (SSW) 3,224 ? -7.2°
